GW1009 Weather Reports


time (UTC)temp
F
wind
direction
speed
knots
gust
knots
rain 1hr
in
rain 24hr
in
rain mn
in
humidity
%
barometer
mb
20260509042515 40 124 1.7 2.6 0.00 0.06 0.00 68 1011.6
20260509042013 40 161 0.0 2.6 0.00 0.06 0.00 69 1011.5
20260509041515 39 141 0.9 2.6 0.00 0.06 0.00 71 1011.5
20260509041011 38 113 0.9 2.6 0.00 0.06 0.00 76 1011.5
20260509040508 37 112 0.9 3.5 0.00 0.06 0.00 78 1011.5
20260509040009 37 112 0.9 3.5 0.00 0.06 0.00 79 1011.4
20260509035507 37 113 2.6 3.5 0.00 0.06 0.06 78 1011.4
20260509035007 37 109 0.9 2.6 0.00 0.06 0.06 78 1011.3
20260509034507 37 109 0.0 2.6 0.00 0.06 0.06 78 1011.3
20260509034007 37 109 1.7 2.6 0.00 0.06 0.06 78 1011.3
20260509033510 37 102 1.7 2.6 0.00 0.06 0.06 78 1011.3
20260509033007 37 80 1.7 2.6 0.00 0.06 0.06 78 1011.2
20260509032507 37 78 0.9 2.6 0.00 0.06 0.06 77 1011.3
20260509032006 37 78 1.7 2.6 0.00 0.06 0.06 77 1011.4
20260509031508 37 61 1.7 2.6 0.00 0.06 0.06 77 1011.5
20260509031007 37 61 0.9 2.6 0.00 0.06 0.06 76 1011.4
20260509030506 37 61 1.7 2.6 0.00 0.06 0.06 76 1011.4
20260509030005 37 59 1.7 2.6 0.00 0.06 0.06 76 1011.5
20260509025505 37 55 1.7 2.6 0.00 0.06 0.06 76 1011.5
20260509025009 37 50 0.9 2.6 0.00 0.06 0.06 75 1011.6
20260509024506 37 286 0.9 2.6 0.00 0.06 0.06 74 1011.6
20260509024005 38 285 0.0 1.7 0.00 0.06 0.06 73 1011.6
20260509023505 38 285 0.0 0.0 0.00 0.06 0.06 71 1011.7
20260509023005 39 285 0.0 0.9 0.00 0.06 0.06 71 1011.7
20260509022504 39 285 0.0 0.9 0.00 0.06 0.06 70 1011.7
20260509022006 39 285 0.0 0.0 0.00 0.06 0.06 70 1011.6
20260509021504 38 285 0.0 0.9 0.00 0.06 0.06 71 1011.7
20260509021004 38 285 0.0 0.9 0.00 0.06 0.06 71 1011.8
20260509020503 38 285 0.0 1.7 0.00 0.06 0.06 70 1011.7
20260509020003 38 301 0.0 1.7 0.00 0.06 0.06 70 1011.6
20260509015503 38 301 0.0 1.7 0.00 0.06 0.06 71 1011.6
20260509015004 38 301 0.0 1.7 0.00 0.06 0.06 70 1011.4
20260509014507 38 301 0.0 1.7 0.00 0.06 0.06 70 1011.4
20260509014102 38 301 0.0 2.6 0.00 0.06 0.06 70 1011.4
20260509013501 38 301 0.9 2.6 0.00 0.06 0.06 70 1011.2
20260509013002 39 299 0.0 0.0 0.00 0.06 0.06 69 1011.2
20260509012502 39 300 0.0 0.0 0.00 0.06 0.06 68 1011.0
20260509012001 39 300 0.0 0.0 0.00 0.06 0.06 68 1011.1
20260509011501 39 300 0.0 0.0 0.00 0.06 0.06 67 1011.1
20260509011002 40 300 0.0 0.0 0.00 0.06 0.06 66 1010.9
20260509010500 40 300 0.0 0.9 0.00 0.06 0.06 65 1010.9
20260509005600 40 300 0.0 1.7 0.00 0.06 0.06 63 1010.8
20260509005104 41 300 0.0 0.9 0.00 0.06 0.06 60 1010.6
20260509004603 41 300 0.0 1.7 0.00 0.06 0.06 59 1010.4
20260509004100 41 300 0.0 1.7 0.00 0.06 0.06 62 1010.3
20260509003600 42 300 0.9 1.7 0.00 0.06 0.06 64 1010.3
20260509003103 42 300 0.9 1.7 0.00 0.06 0.06 64 1010.3
20260509002603 42 300 0.0 1.7 0.00 0.06 0.06 60 1010.3
20260509002100 43 360 0.9 1.7 0.00 0.06 0.06 58 1010.1
20260509001559 43 300 0.9 2.6 0.00 0.06 0.06 58 1010.0
20260509001058 44 300 0.9 2.6 0.00 0.06 0.06 59 1010.1
20260509000558 45 300 0.0 0.0 0.00 0.06 0.06 58 1010.1
20260508235559 46 300 0.0 2.6 0.00 0.06 0.06 50 1010.0
20260508235059 46 300 0.9 3.5 0.00 0.06 0.06 48 1010.0
20260508234604 46 304 0.9 3.5 0.00 0.06 0.06 48 1010.0
20260508234058 46 302 0.9 3.5 0.00 0.06 0.06 49 1009.9
20260508233558 46 293 0.9 2.6 0.00 0.06 0.06 50 1009.9
20260508233108 47 292 0.9 2.6 0.00 0.06 0.06 49 1009.8
20260508232556 47 305 0.9 3.5 0.00 0.06 0.06 47 1009.8
20260508232057 47 307 1.7 7.8 0.00 0.06 0.06 47 1009.9
20260508231558 47 306 4.3 7.8 0.00 0.06 0.06 48 1009.9
20260508231056 47 301 3.5 8.7 0.00 0.06 0.06 47 1009.9
20260508230559 47 297 4.3 8.7 0.00 0.06 0.06 45 1009.9
20260508230056 48 343 3.5 7.0 0.00 0.06 0.06 46 1009.9
20260508225556 48 319 2.6 7.8 0.00 0.06 0.06 44 1009.9
20260508225056 48 306 3.5 12.2 0.00 0.06 0.06 46 1009.9
20260508224557 48 315 3.5 12.2 0.00 0.06 0.06 45 1009.9
20260508224055 48 297 5.2 12.2 0.00 0.06 0.06 46 1010.0
20260508223555 48 320 7.8 13.0 0.00 0.06 0.06 45 1010.0
20260508223055 49 294 6.1 13.0 0.00 0.06 0.06 43 1009.9
20260508222554 48 261 2.6 10.4 0.00 0.06 0.06 43 1010.0
20260508222054 48 304 4.3 11.3 0.00 0.06 0.06 43 1010.0
20260508221556 48 289 8.7 11.3 0.00 0.06 0.06 42 1010.0
20260508221054 48 293 3.5 8.7 0.00 0.06 0.06 46 1010.1
20260508220556 47 319 5.2 11.3 0.00 0.06 0.06 46 1010.1
20260508220055 48 325 8.7 12.2 0.00 0.06 0.06 45 1010.0
20260508215553 48 294 6.1 13.0 0.00 0.06 0.06 44 1010.1
20260508215053 48 256 1.7 13.0 0.00 0.06 0.06 46 1010.1
20260508214553 49 313 6.1 11.3 0.00 0.06 0.06 45 1010.1
20260508214052 50 306 4.3 10.4 0.00 0.06 0.06 45 1010.1
20260508213552 50 291 1.7 7.8 0.00 0.06 0.06 45 1010.2
20260508213055 50 294 1.7 8.7 0.00 0.06 0.06 44 1010.2
20260508212551 49 273 3.5 13.0 0.00 0.06 0.06 48 1010.3
20260508212050 49 228 5.2 13.0 0.00 0.06 0.06 46 1010.2
20260508211552 49 285 8.7 13.0 0.00 0.06 0.06 44 1010.1
20260508211050 49 301 2.6 11.3 0.00 0.06 0.06 46 1010.1
20260508210552 49 304 6.1 12.2 0.00 0.06 0.06 44 1010.1
20260508210051 49 305 7.0 13.0 0.00 0.06 0.06 45 1010.1
20260508205549 49 301 3.5 13.0 0.00 0.06 0.06 50 1010.1
20260508205049 49 298 4.3 10.4 0.00 0.06 0.06 50 1010.1
20260508204549 49 290 6.1 9.6 0.00 0.06 0.06 48 1010.1
20260508204050 49 265 2.6 14.8 0.00 0.06 0.06 50 1010.1
20260508203546 49 301 5.2 14.8 0.00 0.06 0.06 53 1010.0
20260508203045 48 274 2.6 14.8 0.00 0.06 0.06 57 1010.0
20260508202545 47 304 8.7 14.8 0.00 0.06 0.06 53 1010.1
20260508202041 46 299 5.2 10.4 0.00 0.06 0.06 58 1010.2
20260508201541 45 290 5.2 8.7 0.01 0.06 0.06 59 1010.2
20260508201041 45 305 3.5 10.4 0.01 0.06 0.06 58 1010.3
20260508200540 45 313 5.2 10.4 0.01 0.06 0.06 59 1010.3
20260508200140 46 304 3.5 9.6 0.01 0.06 0.06 64 1010.3
20260508195539 45 321 4.3 9.6 0.01 0.06 0.06 65 1010.3
20260508195039 45 300 6.1 9.6 0.01 0.06 0.06 68 1010.3
20260508194548 44 274 3.5 6.1 0.01 0.06 0.06 68 1010.4
20260508194039 44 305 3.5 8.7 0.01 0.06 0.06 67 1010.3
20260508193539 45 360 4.3 8.7 0.01 0.06 0.06 69 1010.4
20260508193040 45 262 2.6 4.3 0.01 0.06 0.06 70 1010.4
20260508192539 44 274 1.7 3.5 0.01 0.06 0.06 71 1010.6
20260508192038 44 223 0.9 7.0 0.01 0.06 0.06 68 1010.7
20260508191546 45 283 1.7 7.0 0.00 0.05 0.05 67 1010.7
20260508191038 46 241 1.7 4.3 0.00 0.05 0.05 65 1010.7
20260508190540 46 98 1.7 4.3 0.00 0.05 0.05 66 1010.7
20260508190055 46 238 1.7 7.8 0.00 0.05 0.05 67 1010.5
20260508185536 45 204 0.9 6.1 0.00 0.05 0.05 71 1010.6
20260508185035 45 212 1.7 6.1 0.00 0.05 0.05 71 1010.7
20260508184538 45 346 0.9 7.8 0.00 0.05 0.05 70 1010.6
20260508184033 44 297 2.6 7.8 0.00 0.05 0.05 70 1010.7
20260508183532 44 284 1.7 7.0 0.00 0.05 0.05 74 1010.7
20260508183035 44 298 3.5 7.0 0.00 0.05 0.05 73 1010.7
20260508182530 44 310 1.7 5.2 0.00 0.05 0.05 73 1010.8
20260508182034 44 242 1.7 5.2 0.00 0.05 0.05 74 1010.8
20260508181541 44 200 1.7 3.5 0.00 0.05 0.05 75 1010.9
20260508181030 43 254 0.9 3.5 0.00 0.05 0.05 74 1010.9
20260508180528 43 295 0.9 4.3 0.00 0.05 0.05 77 1010.9
20260508180029 42 235 0.0 5.2 0.00 0.05 0.05 76 1011.0
20260508175528 42 227 0.9 6.1 0.00 0.05 0.05 75 1010.8
20260508175030 43 237 2.6 6.1 0.00 0.05 0.05 74 1010.9
20260508174531 43 360 1.7 5.2 0.00 0.05 0.05 75 1010.8
20260508174030 43 261 1.7 6.1 0.00 0.05 0.05 76 1010.8
20260508173529 43 215 2.6 6.1 0.00 0.05 0.05 78 1010.9
20260508173028 42 186 0.9 5.2 0.00 0.05 0.05 81 1010.9
20260508172530 42 221 1.7 3.5 0.00 0.05 0.05 79 1010.9
20260508172027 41 240 0.0 3.5 0.00 0.05 0.05 80 1011.0
20260508171530 41 234 0.0 4.3 0.00 0.05 0.05 81 1011.1
20260508171026 41 248 0.9 5.2 0.00 0.05 0.05 81 1011.2
20260508170526 41 309 2.6 5.2 0.00 0.05 0.05 81 1011.2
20260508170027 41 207 1.7 5.2 0.01 0.05 0.05 81 1011.3
20260508165526 41 250 0.9 5.2 0.01 0.05 0.05 82 1011.3
20260508165026 41 290 1.7 6.1 0.01 0.05 0.05 83 1011.3
20260508164527 41 253 0.9 4.3 0.01 0.05 0.05 84 1011.3
20260508164026 41 227 1.7 5.2 0.01 0.05 0.05 84 1011.4
20260508163525 40 248 1.7 7.0 0.01 0.05 0.05 85 1011.4
20260508163026 40 288 4.3 7.0 0.01 0.05 0.05 83 1011.5
20260508162529 39 244 1.7 5.2 0.01 0.05 0.05 84 1011.4
20260508162024 39 239 1.7 7.0 0.01 0.05 0.05 84 1011.5
20260508161540 39 214 1.7 7.0 0.01 0.05 0.05 82 1011.5
20260508161024 39 250 2.6 7.0 0.01 0.05 0.05 82 1011.5
20260508160525 39 193 2.6 7.0 0.00 0.04 0.04 80 1011.5
20260508160023 39 257 1.7 7.0 0.00 0.04 0.04 80 1011.6
20260508155523 39 261 3.5 7.0 0.00 0.04 0.04 81 1011.5
20260508155023 40 322 0.9 7.8 0.00 0.04 0.04 82 1011.5
20260508154525 40 234 1.7 7.8 0.00 0.04 0.04 81 1011.3
20260508154024 40 308 0.9 7.8 0.00 0.04 0.04 82 1011.4
20260508153523 40 197 0.9 7.8 0.00 0.04 0.04 83 1011.3
20260508153040 40 73 0.9 7.8 0.00 0.04 0.04 83 1011.2
20260508152521 39 208 2.6 7.8 0.00 0.04 0.04 84 1011.1
20260508152020 39 360 1.7 7.0 0.00 0.04 0.04 83 1011.2
20260508151520 39 360 1.7 7.0 0.00 0.04 0.04 82 1011.1
20260508151023 39 360 2.6 8.7 0.01 0.04 0.04 81 1011.1
20260508150520 39 360 1.7 8.7 0.01 0.04 0.04 78 1011.1
20260508150019 40 360 1.7 11.3 0.01 0.04 0.04 76 1011.2
20260508145519 41 360 3.5 11.3 0.01 0.04 0.04 73 1011.2
20260508145019 42 360 3.5 10.4 0.01 0.04 0.04 71 1011.1
20260508144518 42 292 1.7 7.0 0.01 0.04 0.04 73 1011.0
20260508144018 41 286 2.6 7.0 0.01 0.04 0.04 69 1011.0
20260508143518 41 225 1.7 7.0 0.01 0.04 0.04 70 1011.0
20260508143016 41 313 1.7 8.7 0.01 0.04 0.04 69 1010.8
20260508142515 42 302 5.2 8.7 0.01 0.04 0.04 69 1010.7
20260508142016 42 297 5.2 8.7 0.01 0.04 0.04 69 1010.7
20260508141516 42 305 4.3 8.7 0.01 0.04 0.04 68 1010.6
20260508141015 42 263 1.7 5.2 0.00 0.03 0.03 68 1010.6
20260508140515 42 303 1.7 5.2 0.00 0.03 0.03 69 1010.6
20260508140015 42 322 1.7 5.2 0.00 0.03 0.03 67 1010.6
20260508135516 42 305 2.6 5.2 0.00 0.03 0.03 68 1010.6
20260508135015 42 313 0.9 5.2 0.00 0.03 0.03 69 1010.7
20260508134519 42 315 1.7 10.4 0.00 0.03 0.03 69 1010.6
20260508134015 43 313 7.0 10.4 0.00 0.03 0.03 68 1010.5
20260508133515 44 249 2.6 7.8 0.00 0.03 0.03 68 1010.4
20260508133013 43 281 0.0 3.5 0.00 0.03 0.03 70 1010.3
20260508132511 43 218 0.0 7.0 0.00 0.03 0.03 68 1010.0
20260508132010 43 310 3.5 8.7 0.00 0.03 0.03 68 1010.3
20260508131511 43 286 4.3 7.0 0.00 0.03 0.03 67 1010.3
20260508131015 43 303 3.5 7.0 0.00 0.03 0.03 70 1010.4
20260508130506 42 266 1.7 8.7 0.00 0.03 0.03 73 1010.5
20260508130006 41 331 5.2 8.7 0.00 0.03 0.03 71 1010.4
20260508125504 41 304 5.2 8.7 0.00 0.03 0.03 72 1010.5
20260508125003 41 325 4.3 9.6 0.00 0.03 0.03 72 1010.5
20260508124504 41 290 5.2 9.6 0.00 0.03 0.03 75 1010.4
20260508124000 41 302 1.7 7.8 0.00 0.03 0.03 77 1010.3
20260508123600 41 313 1.7 7.0 0.00 0.03 0.03 77 1010.2
20260508123100 41 283 2.6 7.0 0.00 0.03 0.03 78 1010.2
20260508122602 40 309 0.0 5.2 0.00 0.03 0.03 79 1010.4
20260508122059 41 309 1.7 7.0 0.00 0.03 0.03 79 1010.5
20260508121600 41 324 0.9 5.2 0.00 0.03 0.03 80 1010.6
20260508121058 41 202 0.9 4.3 0.00 0.03 0.03 79 1010.6
20260508120556 40 78 0.9 3.5 0.00 0.03 0.03 79 1010.7
20260508120111 40 244 0.0 3.5 0.00 0.03 0.03 81 1010.6
20260508115558 40 242 0.9 3.5 0.00 0.03 0.03 81 1010.6
20260508115054 40 231 0.9 4.3 0.00 0.03 0.03 82 1010.7
20260508114559 39 230 1.7 4.3 0.00 0.03 0.03 82 1010.6
20260508114049 39 251 0.0 2.6 0.00 0.03 0.03 84 1010.7
20260508113548 38 221 0.0 2.6 0.00 0.03 0.03 85 1010.6
20260508113046 38 225 0.0 2.6 0.00 0.03 0.03 85 1010.5
20260508112546 38 223 0.9 3.5 0.00 0.03 0.03 86 1010.3
20260508112042 37 222 0.0 5.2 0.00 0.03 0.03 86 1010.3
20260508111543 37 196 1.7 5.2 0.00 0.03 0.03 87 1010.6
20260508111040 37 200 1.7 3.5 0.00 0.03 0.03 87 1010.8
20260508110538 37 196 0.9 3.5 0.00 0.03 0.03 88 1010.8
20260508110037 37 214 0.0 3.5 0.00 0.03 0.03 89 1010.6
20260508105535 36 232 0.0 3.5 0.00 0.03 0.03 89 1010.5
20260508105035 36 227 0.0 3.5 0.00 0.03 0.03 89 1010.5
20260508104532 36 222 0.9 2.6 0.00 0.03 0.03 90 1010.5
20260508104031 35 229 0.0 1.7 0.00 0.03 0.03 90 1010.3
20260508103530 35 224 0.0 2.6 0.00 0.03 0.03 90 1010.3
20260508103041 34 281 0.0 2.6 0.00 0.03 0.03 90 1010.2
20260508102531 34 205 0.0 1.7 0.00 0.03 0.03 90 1010.1
20260508102033 34 205 0.0 1.7 0.00 0.03 0.03 90 1010.0
20260508101528 34 204 0.0 0.0 0.01 0.03 0.03 90 1009.9
20260508101030 34 204 0.0 0.0 0.01 0.03 0.03 89 1009.8
20260508100527 34 203 0.0 0.0 0.01 0.03 0.03 89 1009.7
20260508100032 34 203 0.0 0.0 0.01 0.03 0.03 89 1009.6
20260508095530 34 203 0.0 0.0 0.01 0.03 0.03 89 1009.7
20260508095026 34 203 0.0 1.7 0.01 0.03 0.03 89 1009.7
20260508094525 34 203 0.0 2.6 0.01 0.03 0.03 89 1009.7
20260508094025 34 203 0.9 2.6 0.02 0.03 0.03 89 1009.8
20260508093526 34 188 0.9 4.3 0.02 0.03 0.03 89 1009.8
20260508093034 34 217 0.9 5.2 0.02 0.03 0.03 89 1009.9
20260508092526 34 222 1.7 5.2 0.02 0.03 0.03 89 1010.0
20260508092025 34 196 0.9 2.6 0.02 0.03 0.03 88 1010.0
20260508091526 34 191 0.0 1.7 0.02 0.02 0.02 88 1010.1
20260508091024 34 188 0.0 1.7 0.02 0.02 0.02 88 1010.0
20260508090524 34 188 0.0 2.6 0.02 0.02 0.02 88 1009.9
20260508090026 34 223 0.0 3.5 0.02 0.02 0.02 87 1010.0
20260508085522 34 291 0.9 3.5 0.02 0.02 0.02 87 1010.0
20260508085022 34 342 1.7 7.8 0.02 0.02 0.02 86 1010.0
20260508084521 35 321 3.5 8.7 0.01 0.01 0.01 86 1010.1
20260508084019 35 307 5.2 8.7 0.01 0.01 0.01 85 1010.1
20260508083519 35 314 2.6 7.0 0.01 0.01 0.01 85 1010.0
20260508083018 36 308 3.5 9.6 0.01 0.01 0.01 83 1010.1
20260508082518 36 313 7.0 9.6 0.01 0.01 0.01 82 1010.0
20260508082017 37 317 5.2 9.6 0.01 0.01 0.01 80 1009.9
20260508081515 38 281 4.3 11.3 0.00 0.00 0.00 78 1009.9
20260508081014 38 294 4.3 14.8 0.00 0.00 0.00 76 1009.7
20260508080513 38 269 7.8 14.8 0.00 0.00 0.00 74 1009.7
20260508080012 38 310 2.6 7.0 0.00 0.00 0.00 71 1009.6
20260508075511 38 287 0.9 3.5 0.00 0.00 0.00 69 1009.5
20260508075009 38 270 0.0 3.5 0.00 0.00 0.00 68 1009.5
20260508074509 38 272 0.0 2.6 0.00 0.00 0.00 67 1009.4
20260508074009 38 254 0.9 2.6 0.00 0.00 0.00 67 1009.4
20260508073509 38 154 0.0 1.7 0.00 0.00 0.00 66 1009.4
20260508073008 38 154 0.0 2.6 0.00 0.00 0.00 66 1009.2
20260508072507 38 153 0.0 2.6 0.00 0.00 0.00 65 1009.3
20260508072009 38 151 0.9 2.6 0.00 0.00 0.00 64 1009.3
20260508071508 38 144 0.0 2.6 0.00 0.00 0.00 64 1009.2
20260508071005 38 123 0.0 2.6 0.00 0.00 0.00 63 1009.2
20260508070509 38 229 0.0 2.6 0.00 0.00 0.00 63 1009.1
20260508070005 38 230 0.0 2.6 0.00 0.00 0.00 64 1009.2
20260508065506 37 238 0.0 0.9 0.00 0.00 0.00 63 1009.1
20260508065006 37 238 0.0 0.0 0.00 0.00 0.00 63 1009.0
20260508064505 37 238 0.0 0.0 0.00 0.00 0.00 63 1008.8
20260508064007 38 238 0.0 0.0 0.00 0.00 0.00 63 1008.8
20260508063504 38 238 0.0 0.0 0.00 0.00 0.00 63 1008.8
20260508063003 38 238 0.0 0.0 0.00 0.00 0.00 62 1008.8
20260508062502 38 238 0.0 0.0 0.00 0.00 0.00 62 1008.8
20260508062002 38 238 0.0 0.9 0.00 0.00 0.00 62 1008.8
20260508061501 38 238 0.0 0.9 0.00 0.00 0.00 62 1008.8
20260508061001 38 238 0.0 0.9 0.00 0.00 0.00 62 1008.9
20260508060601 38 238 0.0 0.9 0.00 0.00 0.00 61 1009.0
20260508060130 38 238 0.0 1.7 0.00 0.00 0.00 61 1009.0
20260508055559 38 238 0.0 1.7 0.00 0.00 0.00 61 1009.0
20260508055059 38 248 0.0 1.7 0.00 0.00 0.00 61 1009.1
20260508054641 38 248 0.0 2.6 0.00 0.00 0.00 61 1009.2
20260508054059 37 248 0.0 2.6 0.00 0.00 0.00 61 1009.2
20260508053557 37 249 0.0 3.5 0.00 0.00 0.00 61 1009.1
20260508053057 37 249 0.0 3.5 0.00 0.00 0.00 61 1009.1
20260508052556 37 234 0.0 2.6 0.00 0.00 0.00 61 1009.3
20260508052055 37 236 0.0 1.7 0.00 0.00 0.00 62 1009.3
20260508051555 37 236 0.0 0.9 0.00 0.00 0.00 62 1009.3
20260508051055 37 235 0.0 0.9 0.00 0.00 0.00 63 1009.3
20260508050554 37 235 0.0 2.6 0.00 0.00 0.00 62 1009.3
20260508050054 37 235 0.9 2.6 0.00 0.00 0.00 62 1009.4
20260508045554 37 265 0.0 1.7 0.00 0.00 0.00 63 1009.4
20260508045052 36 223 0.0 2.6 0.00 0.00 0.00 64 1009.3
20260508044552 36 222 0.0 2.6 0.00 0.00 0.00 64 1009.3
20260508044052 36 247 0.0 1.7 0.00 0.00 0.00 65 1009.3
20260508043550 36 247 0.0 1.7 0.00 0.00 0.00 66 1009.4
20260508043057 36 248 0.0 0.9 0.00 0.00 0.00 66 1009.4